GPS BIII-4 (PRN 14)

Last updated on Sun Apr 12 2026 00:03:23 GMT+0000 (Coordinated Universal Time)

1 46826U 20078A 26101.00034233 -.00000013 00000+0 00000+0 0 9991 2 46826 53.9927 213.5027 0070280 205.2855 183.9036 2.00565156 40168
UTC large
Height (km)
Speed (km/s)
/
Latitude / Longitude
Inclination (degrees)
Orbital Period (minutes)
Azimuth
Elevation
Range (km)
Doppler Factor

Next 0 passes for location: London (51.5072 / 0.1276)

Sorry there are no passes over London.
GPS BIII-4 (PRN 14)